FW0386 Weather Reports


Display with metric or nautical units.
time (UTC)temp
F
wind
direction
speed
MPH
gust
MPH
rain 1hr
in
rain 24hr
in
rain mn
in
humidity
%
barometer
mb
20260506111546 71 103 5.0 12.0 0.00 0.00 0.00 52 1006.2
20260506110002 69 115 5.0 10.0 0.00 0.00 0.00 53 1006.5
20260506104520 70 82 4.0 9.0 0.00 0.00 0.00 55 1006.5
20260506103032 69 113 2.0 6.0 0.00 0.00 0.00 55 1006.7
20260506101532 69 194 3.0 10.0 0.00 0.00 0.00 55 1007.0
20260506100038 68 240 3.0 8.0 0.00 0.00 0.00 57 1007.0
20260506094552 68 101 5.0 10.0 0.00 0.00 0.00 59 1007.1
20260506093106 68 96 3.0 9.0 0.00 0.00 0.00 60 1007.2
20260506091522 67 203 4.0 9.0 0.00 0.00 0.00 61 1007.3
20260506090042 67 223 5.0 9.0 0.00 0.00 0.00 62 1007.1
20260506084531 66 188 2.0 7.0 0.00 0.00 0.00 64 1007.2
20260506083044 65 103 0.0 6.0 0.00 0.00 0.00 65 1007.2
20260506081540 65 147 1.0 5.0 0.00 0.00 0.00 67 1007.4
20260506073048 64 233 2.0 8.0 0.00 0.00 0.00 68 1007.6
20260506071612 63 247 3.0 5.0 0.00 0.00 0.00 70 1007.6
20260506070104 63 232 1.0 5.0 0.00 0.00 0.00 70 1007.7
20260506061545 61 283 0.0 3.0 0.00 0.00 0.00 73 1007.6
20260506044510 51 227 0.0 2.0 0.00 0.00 0.00 93 1007.5
20260506043007 49 278 0.0 1.0 0.00 0.00 0.00 93 1007.2
20260506041531 49 278 0.0 0.0 0.00 0.00 0.00 93 1007.2
20260506040031 48 278 0.0 0.0 0.00 0.00 0.00 93 1007.0
20260506034504 49 278 0.0 0.0 0.00 0.00 0.00 92 1006.9
20260506033006 49 278 0.0 1.0 0.00 0.00 0.00 92 1006.8
20260506031527 49 278 0.0 0.0 0.00 0.00 0.00 91 1006.8
20260506030045 49 278 0.0 0.0 0.00 0.00 0.00 90 1006.9
20260506024548 50 278 0.0 0.0 0.00 0.00 0.00 90 1006.9
20260506023004 51 278 0.0 0.0 0.00 0.00 0.00 89 1006.8
20260506021517 53 278 0.0 0.0 0.00 0.00 0.00 88 1006.7
20260506020038 54 278 0.0 0.0 0.00 0.00 0.00 87 1006.8
20260506014549 55 278 0.0 0.0 0.00 0.00 0.00 85 1006.7
20260506013059 57 278 0.0 2.0 0.00 0.00 0.00 84 1006.7
20260506011503 57 274 1.0 6.0 0.00 0.00 0.00 83 1006.5
20260506010026 58 277 1.0 7.0 0.00 0.00 0.00 82 1006.3
20260506004535 58 290 1.0 4.0 0.00 0.00 0.00 81 1006.2
20260506003040 59 285 1.0 4.0 0.00 0.00 0.00 80 1006.0
20260506001619 59 310 0.0 3.0 0.00 0.00 0.00 79 1006.2
20260506000017 59 19 0.0 3.0 0.00 0.00 0.00 77 1006.0
20260505234523 60 37 0.0 5.0 0.00 0.00 0.00 76 1006.0
20260505233037 60 284 0.0 8.0 0.00 0.00 0.00 75 1005.8
20260505231548 60 311 1.0 8.0 0.00 0.00 0.00 74 1005.6
20260505230116 60 285 4.0 10.0 0.00 0.00 0.00 74 1005.6
20260505224554 58 231 0.0 1.0 0.00 0.00 0.00 73 1005.7
20260505223039 58 158 0.0 0.0 0.00 0.00 0.00 72 1005.6
20260505221555 58 226 0.0 1.0 0.00 0.00 0.00 72 1005.5
20260505220100 58 104 0.0 1.0 0.00 0.00 0.00 71 1005.5
20260505214531 58 196 0.0 2.0 0.00 0.00 0.00 71 1005.4
20260505213049 59 113 0.0 2.0 0.00 0.00 0.00 70 1005.2
20260505211553 59 122 0.0 3.0 0.00 0.00 0.00 70 1005.0
20260505210053 59 91 1.0 3.0 0.00 0.00 0.00 69 1005.0
20260505204606 59 86 1.0 3.0 0.00 0.00 0.00 69 1005.1
20260505203058 59 99 0.0 2.0 0.00 0.00 0.00 68 1004.9
20260505201621 60 94 0.0 2.0 0.00 0.00 0.00 67 1005.1
20260505200057 60 111 1.0 3.0 0.00 0.00 0.00 66 1005.0
20260505194519 61 119 0.0 3.0 0.00 0.00 0.00 64 1004.8
20260505193045 62 89 1.0 6.0 0.00 0.00 0.00 63 1004.6
20260505191558 63 113 1.0 7.0 0.00 0.00 0.00 61 1004.7
20260505190118 64 138 2.0 8.0 0.00 0.00 0.00 59 1004.6
20260505183047 66 70 3.0 9.0 0.00 0.00 0.00 58 1004.5
20260505181551 67 85 3.0 7.0 0.00 0.00 0.00 56 1004.3
20260505174525 70 106 3.0 8.0 0.00 0.00 0.00 51 1004.1
20260505173026 70 176 3.0 9.0 0.00 0.00 0.00 49 1004.0
20260505171539 71 140 2.0 6.0 0.00 0.00 0.00 46 1003.9
20260505170058 71 89 1.0 5.0 0.00 0.00 0.00 43 1004.0
20260505164556 72 114 0.0 3.0 0.00 0.00 0.00 42 1004.0
20260505163021 73 70 2.0 8.0 0.00 0.00 0.00 39 1004.2
20260505161513 74 99 2.0 7.0 0.00 0.00 0.00 41 1004.3
20260505153015 75 107 4.0 8.0 0.00 0.00 0.00 42 1004.6
20260505151525 75 106 4.0 11.0 0.00 0.00 0.00 42 1004.8
20260505124532 74 141 3.0 10.0 0.00 0.00 0.00 47 1006.7
20260505123108 74 197 3.0 11.0 0.00 0.00 0.00 50 1006.9
20260505121507 73 160 3.0 10.0 0.00 0.00 0.00 49 1007.0
20260505120013 73 82 4.0 9.0 0.00 0.00 0.00 50 1007.0
20260505114544 72 245 3.0 8.0 0.00 0.00 0.00 49 1007.3
20260505113051 72 94 3.0 7.0 0.00 0.00 0.00 51 1007.3